Погода Ворогово

Погода Ворогово : погода сейчас, прогноз погоды и архив. Всё, что Вы хотите узнать о погоде Ворогово!

Хотите узнать прогноз погоды Ворогово? Тогда Вам сюда: Погода Ворогово

Поиск расширенной информации на нашем сайте:

Другие новости

Новости СМИ2

Главная страница сайта

Новости сайта

03.07.2017

Напоминаем, что на нашем специализированном сайте Метеоцентр.Азия вы можете получить высокодетализированные автоматические прогнозы погоды по пунктам России, СНГ и мира в авиационном формате (включающие направление и скорость ветра, видимость, явления погоды, количество и форму облачности, нижнюю и верхнюю границу облачности).

Рекомендуем: срочно снять финскую сауну

Погода Ворогово - сегодня

Время (UTC), дата Ветер
(°,м/с) 
Видим.   Явления Облачность Т
(°С)
Тd
(°С)
f(%) Тe
(°С)
Pmin
(гПа)
dP
(гПа)
Po
(мм)
O2
(г/м3)
Тmin Tmax R s Состояние
почвы
15 17.02.18 190 (Ю) н/о    н/о 
-16 -17.9 85 -20  1031.1  -0.4  768  330           
18 17.02.18 180 (Ю) н/о    н/о 
-16.1 -18.1 85 -20  1030.2  -0.8  768  330           
21 17.02.18 180 (Ю) н/о    н/о 
-15.6 -17.5 85 -20  1029.2  -1  767  329           
00 18.02.18 180 (Ю) н/о    н/о 
-16.2 -18.1 85 -21  1028.6  -0.7  767  330  -16.6    78  равномерный
сухой снег
100% 
03 18.02.18 180 (Ю) н/о    н/о 
-15.9 -17.9 85 -18  1028.5  766  329           
06 18.02.18 180 (Ю) н/о    н/о 
-13.5 -15.6 84 -18  1027.6  -0.8  766  326           
09 18.02.18 180 (Ю) н/о    н/о 
-12.9 -15.5 81 -17  1027.2  -0.4  766  325           
12 18.02.18 170 (Ю) н/о    н/о 
-13.9 -15.7 86 -18  1027  -0.3  765  326    -12.8     
15 18.02.18 200 (Ю) н/о    н/о 
-13.7 -15.7 85 -17  1026.8  -0.2  765  326           
18 18.02.18 190 (Ю) н/о    н/о 
-14.3 -16.1 86 -18  1026.3  -0.5  765  327           
21 18.02.18 180 (Ю) н/о    н/о 
-15.2 -17.1 85 -19  1025.5  -0.8  764  328           
00 19.02.18 180 (Ю) н/о    н/о 
-15.7 -17.7 85 -19  1024.7  -0.8  764  328  -16    80  равномерный
сухой снег
100% 
03 19.02.18 180 (Ю) н/о    н/о 
-14.9 -16.8 85 -20  1024  763  327           
06 19.02.18 190 (Ю) н/о    н/о 
-13.4 -15.6 83 -19  1023.1  -0.8  762  324           
09 19.02.18 190 (Ю) н/о    н/о 
-12.8 -14.9 84 -17  1023.1  762  324           
12 19.02.18 200 (Ю) н/о    н/о 
-12.9 -14.8 86 -16  1023.4  0.3  763  324    -12.6     
15 19.02.18 200 (Ю) н/о    н/о 
-14.4 -16.4 85 -17  1023.6  0.2  763  326           
18 19.02.18 190 (Ю) н/о    н/о 
-14.9 -16.8 85 -17  1023.7  763  327           
21 19.02.18 180 (Ю) н/о    н/о 
-15.2 -17.1 85 -19  1023  -0.6  762  327           
00 20.02.18 180 (Ю) н/о    н/о 
-15 -16.8 86 -19  1023.2  762  327  -15.3    82  равномерный
сухой снег
100% 
03 20.02.18 190 (Ю) н/о    н/о 
-14.7 -16.5 86 -17  1023.6  0.5  763  326           
06 20.02.18 240 (ЮЗ) н/о    н/о 
-12.1 -14.2 84 -12  1023.8  0.2  763  323           
09 20.02.18 230 (ЮЗ) н/о    н/о 
-10.9 -13.2 83 -11  1024.5  0.7  764  322           
12 20.02.18 230 (ЮЗ) н/о    н/о 
-11.9 -13.8 86 -12  1025  0.5  764  323    -10.3  0.5     
15 20.02.18 280 (З) н/о    н/о 
-13.5 -15.4 86 -13  1024.9  -0.2  764  325           
Время (UTC), дата Ветер
(°,м/с) 
Видим.   Явления Облачность Т
(°С)
Тd
(°С)
f(%) Тe
(°С)
Pmin
(гПа)
dP
(гПа)
Po
(мм)
O2
(г/м3)
Тmin Tmax R s Состояние
почвы

Для получения пояснительной информации подведите курсор к названию столбца.

ПОГОДА Ворогово - архив

Всё, что Вы хотите узнать о погоде Ворогово - удобно и подробно!

Выберите нужную дату (начиная с 1 января 2015* года) и нажмите кнопку "Найти".
Будут отображены архивные сводки погоды по пункту Ворогово, начиная с указанной даты.


Отображать данные в формате CSV (для использования в таблицах Excel)


Внимание! Наш архив погоды предназначен исключительно для личного некоммерческого использования в познавательных целях. Если Вам необходимы официальные справки о состоянии погоды (для производственных, юридических, коммерческих и т.п. целей), обращайтесь в органы Росгидромета.

*Примечание: данная дата относится к архиву по метеостанциям СССР (Россия, СНГ, Балтия).
Архив по метеостанциям Зарубежной Европы и Азии (кроме Китая) хранится 10 дней, по другим регионам земного шара (Китай, Африка, Америка, Австралия, Океания) - 1 день.

Ворогово - район местоположения метеостанции


Название, широта, долгота, высота метеостанции:
Ворогово 61°ш. 89.6°д. 49 м над ур. моря [Российская Федерация]

Дополнительная информация

В oтличие oт бoльшинства пoгoдных сайтoв мы публикуем пoдрoбную метеoинфoрмацию в детальнoм прoфессиoнальнoм фoрмате.

Характеристики температуры и влажнoсти вoздуха измеряются на высoте 2 м в тени вдали oт зданий и деревьев.
Скoрoсть ветра измеряется на высoте 10 м (на урoвне рoста челoвека скoрoсть ветра ниже в 1.5-2 раза). Если метеoстанция нахoдится в гoрoде или в лесу, тo скoрoсть ветра занижена на 2-4 м/с пo сравнению с oткрытым местoм. Скoрoсть ветра над акватoриями крупных рек и oзёр, а также на вершинах хoлмoв на 2-5 м/с выше, чем в oбычных услoвиях.
Атмoсфернoе давление в разных тoчках местнoсти мoжет значительнo oтличаться oт давления на метеoстанции, в зависимoсти oт услoвий рельефа (при пoдъёме на 10 м давление пoнижается примернo на 1 мм рт.ст.).